Location: Unspecified
(0.0000°N, 0.0000°E)
Time: 17:51:58
(UTC+00:00)

STARLINK 1056 - Pass Details

Date: 18 January 2020
Orbit: 548 x 551 km, 53.0° (Epoch: 17 January)

Event Time Altitude Azimuth Distance (km) Brightness Sun altitude
Rises 05:13:33 0° 183° (S) 2,715 7.4 -13.2°
Reaches altitude 10° 05:16:47 10° 156° (SSE) 1,818 6.9 -12.5°
Maximum altitude 05:18:53 14° 125° (SE) 1,596 7.2 -12.0°
Drops below altitude 10° 05:20:59 10° 94° (E) 1,814 7.6 -11.5°
Sets 05:24:11 0° 68° (ENE) 2,703 7.9 -10.8°
